EXACTVIEW-1 (ADS-1B)

Last updated on Tue Jul 01 2025 00:02:29 GMT+0000 (Coordinated Universal Time)

1 38709U 12039C 25181.58193068 .00000082 00000+0 55103-4 0 9996 2 38709 98.9546 286.6269 0011998 104.2194 256.0318 14.24823529672637
UTC large
Height (km)
Speed (km/s)
/
Latitude / Longitude
Inclination (degrees)
Orbital Period (minutes)
Azimuth
Elevation
Range (km)
Doppler Factor

Next 0 passes for location: London (51.5072 / 0.1276)

Sorry there are no passes over London.